カタログに戻る

STARLINK-35831

運用中通信VLEO
NORAD 66374·PAYLOAD·🇺🇸 United States

打ち上げ Nov 6, 2025 から Vandenberg Space Force Base

Loading…

次のパス (今後24時間)

TLE

最新Source: CelesTrak SupGP

元期: Sep 14, 2026, 23:10 UTC

1 66374C 25254AC  26257.96576389  .00041541  00000+0  12273-2 0  2577
2 66374  53.1593  67.2640 0001232  75.1066 114.4094 15.34369690    12

AllMySatでSTARLINK-35831をリアルタイム追跡

Download on the App Store